Weather History for Sturgeon Bay, WI

Change the Weather History Date:

Saturday, March 1, 2014

  Actual Average Record
Temperature  
Mean Temperature 8 °F -  
Max Temperature 14 °F 33 °F 49 °F (1964)
Min Temperature 3 °F 16 °F -22 °F (1962)
Degree Days  
Heating Degree Days 56    
Moisture  
Dew Point -2 °F    
Average Humidity 64    
Maximum Humidity 79    
Minimum Humidity 48    
Precipitation  
Precipitation 0.00 in - - ()
Sea Level Pressure  
Sea Level Pressure 30.21 in    
Wind  
Wind Speed 10 mph (NW)    
Max Wind Speed 16 mph    
Max Gust Speed 22 mph    
Visibility 9 miles    
Events      
Averages and records for this station are not official NWS values.
T = Trace of Precipitation, MM = Missing Value Source: NWS Daily Summary

Daily Weather History Graph

Daily Weather History Graph

Search for Another Location

Airport:

Trip Planner

Search our weather history database for the weather conditions in past years. The results will help you decide how hot, cold, wet, or windy it might be!

Date:

Astronomy

Mar. 01, 2014 Rise Set
Actual Time 6:27 AM CST 5:37 PM CST
Civil Twilight 5:57 AM CST 6:06 PM CST
Nautical Twilight 5:24 AM CST 6:40 PM CST
Astronomical Twilight 4:50 AM CST 7:14 PM CST
Moon 6:18 AM CST (3/1) 6:27 PM CST (3/1)
Length of Visible Light 12h 08m
Length of Day
11h 10m
New Moon, 0% of the Moon is Illuminated
Mar 1
New Moon
Mar 8
First Quarter
Mar 16
Full
Mar 23
Last Quarter
Mar 30
New

Hourly Weather History & Observations

Time (CST) Temp. Windchill Dew Point Humidity Pressure Visibility Wind Dir Wind Speed Gust Speed Precip Events Conditions
12:15 AM 14.0 °F 1.2 °F 8.6 °F 79% 30.01 in 10.0 mi WNW 10.4 mph - N/A   Overcast
12:35 AM 12.2 °F -0.2 °F 6.8 °F 79% 30.01 in 10.0 mi WNW 9.2 mph - N/A   Overcast
12:55 AM 12.2 °F -0.2 °F 6.8 °F 79% 30.02 in 10.0 mi WNW 9.2 mph - N/A   Overcast
1:15 AM 12.2 °F -1.0 °F 6.8 °F 79% 30.02 in 10.0 mi NW 10.4 mph - N/A   Overcast
1:35 AM 12.2 °F -1.0 °F 3.2 °F 67% 30.03 in 10.0 mi NW 10.4 mph - N/A   Overcast
1:55 AM 12.2 °F 0.7 °F 3.2 °F 67% 30.03 in 10.0 mi NW 8.1 mph - N/A   Overcast
2:15 AM 12.2 °F -1.0 °F 3.2 °F 67% 30.04 in 10.0 mi NW 10.4 mph - N/A   Overcast
2:35 AM 10.4 °F -1.5 °F 1.4 °F 67% 30.04 in 10.0 mi NNW 8.1 mph - N/A   Overcast
2:55 AM 10.4 °F -4.1 °F 1.4 °F 67% 30.05 in 10.0 mi NNW 11.5 mph - N/A   Overcast
3:15 AM 10.4 °F -4.1 °F 1.4 °F 67% 30.04 in 10.0 mi NNW 11.5 mph - N/A   Mostly Cloudy
3:55 AM 10.4 °F -4.1 °F -0.4 °F 62% 30.07 in 10.0 mi NW 11.5 mph - N/A   Overcast
4:15 AM 8.6 °F -6.3 °F -0.4 °F 67% 30.08 in 10.0 mi NW 11.5 mph - N/A   Overcast
4:35 AM 8.6 °F -5.5 °F -0.4 °F 67% 30.08 in 10.0 mi NNW 10.4 mph - N/A   Mostly Cloudy
4:55 AM 8.6 °F -6.3 °F -0.4 °F 67% 30.10 in 10.0 mi NW 11.5 mph - N/A   Partly Cloudy
5:15 AM 6.8 °F -6.9 °F -0.4 °F 72% 30.11 in 10.0 mi NW 9.2 mph - N/A   Scattered Clouds
5:35 AM 6.8 °F -6.9 °F -2.2 °F 67% 30.13 in 10.0 mi NW 9.2 mph - N/A   Mostly Cloudy
5:55 AM 6.8 °F -5.9 °F -2.2 °F 67% 30.12 in 10.0 mi NNW 8.1 mph - N/A   Mostly Cloudy
6:15 AM 5.0 °F -13.0 °F -4.0 °F 66% 30.12 in 10.0 mi NNW 15.0 mph - N/A   Clear
6:35 AM 5.0 °F -13.6 °F -4.0 °F 66% 30.14 in 10.0 mi NNW 16.1 mph - N/A   Clear
6:55 AM 5.0 °F -11.6 °F -4.0 °F 66% 30.15 in 10.0 mi NNW 12.7 mph - N/A   Mostly Cloudy
7:15 AM 5.0 °F -13.0 °F -7.6 °F 56% 30.16 in 10.0 mi NNW 15.0 mph - N/A   Mostly Cloudy
7:35 AM 5.0 °F -11.6 °F -4.0 °F 66% 30.19 in 10.0 mi NNW 12.7 mph - N/A   Partly Cloudy
7:55 AM 5.0 °F -13.6 °F -5.8 °F 61% 30.19 in 8.0 mi NNW 16.1 mph - N/A   Scattered Clouds
8:15 AM 5.0 °F -13.0 °F -5.8 °F 61% 30.20 in 1.2 mi NNW 15.0 mph 21.9 mph N/A   Mostly Cloudy
8:35 AM 6.8 °F -10.7 °F -5.8 °F 56% 30.21 in 2.0 mi NNW 15.0 mph - N/A   Overcast
8:55 AM 6.8 °F -11.3 °F -5.8 °F 56% 30.21 in 2.0 mi NW 16.1 mph 20.7 mph N/A   Overcast
9:15 AM 6.8 °F -10.0 °F -4.0 °F 61% 30.21 in 2.0 mi NNW 13.8 mph - N/A   Overcast
9:35 AM 6.8 °F -9.3 °F -5.8 °F 56% 30.21 in 3.0 mi NNW 12.7 mph - N/A   Overcast
9:55 AM 6.8 °F -10.0 °F -4.0 °F 61% 30.22 in 3.0 mi NNW 13.8 mph - N/A   Mostly Cloudy
10:15 AM 6.8 °F -7.8 °F -5.8 °F 56% 30.23 in 10.0 mi NNW 10.4 mph - N/A   Overcast
10:35 AM 6.8 °F -10.0 °F -5.8 °F 56% 30.23 in 10.0 mi NW 13.8 mph - N/A   Overcast
10:55 AM 8.6 °F -7.0 °F -4.0 °F 57% 30.23 in 10.0 mi NW 12.7 mph 16.1 mph N/A   Overcast
11:15 AM 8.6 °F -7.0 °F -5.8 °F 52% 30.24 in 10.0 mi NNW 12.7 mph - N/A   Overcast
11:35 AM 8.6 °F -5.5 °F -5.8 °F 52% 30.25 in 10.0 mi NNW 10.4 mph - N/A   Mostly Cloudy
11:55 AM 8.6 °F -5.5 °F -5.8 °F 52% 30.24 in 10.0 mi NNW 10.4 mph - N/A   Mostly Cloudy
12:15 PM 8.6 °F -4.7 °F -5.8 °F 52% 30.24 in 10.0 mi NNW 9.2 mph - N/A   Overcast
12:35 PM 8.6 °F -4.7 °F -5.8 °F 52% 30.25 in 10.0 mi NW 9.2 mph - N/A   Overcast
12:55 PM 8.6 °F -4.7 °F -5.8 °F 52% 30.24 in 10.0 mi NW 9.2 mph - N/A   Overcast
1:15 PM 8.6 °F -2.6 °F -5.8 °F 52% 30.25 in 10.0 mi West 6.9 mph - N/A   Overcast
1:35 PM 8.6 °F -1.3 °F -7.6 °F 48% 30.24 in 10.0 mi NW 5.8 mph - N/A   Overcast
1:55 PM 8.6 °F 0.1 °F -7.6 °F 48% 30.24 in 10.0 mi NW 4.6 mph - N/A   Overcast
2:15 PM 8.6 °F 0.1 °F -4.0 °F 57% 30.24 in 5.0 mi WSW 4.6 mph - N/A   Overcast
2:35 PM 8.6 °F 0.1 °F -4.0 °F 57% 30.25 in 10.0 mi West 4.6 mph - N/A   Overcast
2:55 PM 8.6 °F -2.6 °F -4.0 °F 57% 30.25 in 7.0 mi WNW 6.9 mph - N/A   Overcast
3:15 PM 8.6 °F - -2.2 °F 62% 30.26 in 10.0 mi Calm Calm - N/A   Overcast
3:35 PM 8.6 °F 0.1 °F -2.2 °F 62% 30.27 in 10.0 mi West 4.6 mph - N/A   Overcast
3:55 PM 8.6 °F 2.0 °F -5.8 °F 52% 30.25 in 10.0 mi WSW 3.5 mph - N/A   Scattered Clouds
4:15 PM 10.4 °F 2.2 °F -4.0 °F 52% 30.27 in 10.0 mi West 4.6 mph - N/A   Mostly Cloudy
4:35 PM 10.4 °F 0.8 °F -4.0 °F 52% 30.26 in 10.0 mi WSW 5.8 mph - N/A   Overcast
4:55 PM 10.4 °F -0.4 °F -2.2 °F 57% 30.27 in 10.0 mi WSW 6.9 mph - N/A   Scattered Clouds
5:15 PM 8.6 °F -1.3 °F -0.4 °F 67% 30.26 in 10.0 mi SW 5.8 mph - N/A   Mostly Cloudy
5:35 PM 8.6 °F -2.6 °F -0.4 °F 67% 30.26 in 10.0 mi SSW 6.9 mph - N/A   Mostly Cloudy
5:55 PM 8.6 °F -2.6 °F 1.4 °F 73% 30.26 in 10.0 mi SSW 6.9 mph - N/A   Partly Cloudy
6:15 PM 8.6 °F -1.3 °F 1.4 °F 73% 30.26 in 10.0 mi SSW 5.8 mph - N/A   Mostly Cloudy
6:35 PM 8.6 °F -2.6 °F 1.4 °F 73% 30.28 in 10.0 mi SW 6.9 mph - N/A   Mostly Cloudy
6:55 PM 8.6 °F -1.3 °F 3.2 °F 79% 30.28 in 10.0 mi SW 5.8 mph - N/A   Mostly Cloudy
7:15 PM 8.6 °F -1.3 °F 1.4 °F 73% 30.29 in 10.0 mi WSW 5.8 mph - N/A   Overcast
7:35 PM 8.6 °F -2.6 °F 1.4 °F 73% 30.28 in 10.0 mi WSW 6.9 mph - N/A   Mostly Cloudy
7:55 PM 8.6 °F -3.7 °F 1.4 °F 73% 30.29 in 10.0 mi WSW 8.1 mph - N/A   Scattered Clouds
8:15 PM 8.6 °F -2.6 °F -0.4 °F 67% 30.30 in 10.0 mi WSW 6.9 mph - N/A   Partly Cloudy
8:35 PM 8.6 °F -3.7 °F 1.4 °F 73% 30.30 in 10.0 mi WNW 8.1 mph - N/A   Scattered Clouds
8:55 PM 8.6 °F -4.7 °F -2.2 °F 62% 30.30 in 10.0 mi North 9.2 mph - N/A   Mostly Cloudy
9:15 PM 6.8 °F -6.9 °F -0.4 °F 72% 30.30 in 10.0 mi North 9.2 mph - N/A   Scattered Clouds
9:35 PM 6.8 °F -5.9 °F 1.4 °F 79% 30.31 in 10.0 mi North 8.1 mph - N/A   Scattered Clouds
9:55 PM 5.0 °F -9.1 °F -2.2 °F 72% 30.32 in 10.0 mi NNW 9.2 mph - N/A   Overcast
10:15 PM 3.2 °F -13.1 °F -2.2 °F 78% 30.32 in 10.0 mi North 11.5 mph - N/A   Overcast
10:35 PM 3.2 °F -13.9 °F -2.2 °F 78% 30.32 in 10.0 mi NNE 12.7 mph - N/A   Overcast
10:55 PM 3.2 °F -13.1 °F -5.8 °F 66% 30.32 in 10.0 mi NNE 11.5 mph - N/A   Overcast
11:15 PM 3.2 °F -11.3 °F -5.8 °F 66% 30.33 in 10.0 mi North 9.2 mph - N/A   Overcast
11:35 PM 3.2 °F -12.2 °F -4.0 °F 72% 30.34 in 7.0 mi North 10.4 mph - N/A   Overcast
11:55 PM 3.2 °F -13.9 °F -2.2 °F 78% 30.33 in 5.0 mi NNE 12.7 mph - N/A   Overcast